Time,TemperatureF,DewpointF,PressureIn,WindDirection,WindDirectionDegrees,WindSpeedMPH,WindSpeedGustMPH,Humidity,HourlyPrecipIn,Conditions,Clouds,dailyrainin,SoftwareType,DateUTC
2013-03-11 00:02:00,36.0,32.0,30.27,SSW,201,0.0,0.0,84,0.00,,,0.03,,2013-03-11 04:02:00,
2013-03-11 00:12:00,36.0,32.0,30.27,SSW,201,0.0,0.0,84,0.00,,,0.03,,2013-03-11 04:12:00,
2013-03-11 00:22:00,36.0,32.0,30.27,SSW,201,0.0,0.0,84,0.00,,,0.00,,2013-03-11 04:22:00,
2013-03-11 00:33:00,36.0,32.0,30.27,SSW,201,0.0,1.0,84,0.00,,,0.00,,2013-03-11 04:33:00,
2013-03-11 00:42:00,36.0,32.0,30.27,SSW,201,0.0,1.0,84,0.00,,,0.00,,2013-03-11 04:42:00,
2013-03-11 00:52:00,36.0,32.0,30.26,SSW,202,0.0,2.0,85,0.00,,,0.00,,2013-03-11 04:52:00,
2013-03-11 01:03:00,36.0,32.0,30.26,SW,236,0.0,2.0,85,0.00,,,0.00,,2013-03-11 05:03:00,
2013-03-11 01:12:00,36.0,32.0,30.26,SW,236,0.0,2.0,85,0.00,,,0.00,,2013-03-11 05:12:00,
2013-03-11 01:22:00,36.0,32.0,30.27,SW,236,0.0,1.0,85,0.00,,,0.00,,2013-03-11 05:22:00,
2013-03-11 01:32:00,36.0,32.0,30.24,East,81,2.0,5.0,85,0.00,,,0.00,,2013-03-11 05:32:00,
2013-03-11 01:43:00,36.0,32.0,30.24,East,81,2.0,5.0,85,0.00,,,0.00,,2013-03-11 05:43:00,
2013-03-11 01:52:00,36.0,32.0,30.24,ESE,102,0.0,2.0,85,0.00,,,0.00,,2013-03-11 05:52:00,
2013-03-11 02:02:00,36.0,32.0,30.24,West,275,0.0,2.0,86,0.00,,,0.00,,2013-03-11 06:02:00,
2013-03-11 02:12:00,36.0,32.0,30.24,West,275,0.0,2.0,86,0.00,,,0.00,,2013-03-11 06:12:00,
2013-03-11 02:22:00,36.0,32.0,30.24,West,275,0.0,0.0,86,0.00,,,0.00,,2013-03-11 06:22:00,
2013-03-11 02:32:00,36.0,32.0,30.23,SE,136,0.0,2.0,86,0.00,,,0.00,,2013-03-11 06:32:00,
2013-03-11 02:42:00,36.0,32.0,30.23,SE,136,0.0,2.0,86,0.00,,,0.00,,2013-03-11 06:42:00,
2013-03-11 02:53:00,36.0,32.0,30.23,ESE,115,0.0,2.0,86,0.00,,,0.00,,2013-03-11 06:53:00,
2013-03-11 03:03:00,36.0,33.0,30.24,SW,224,0.0,2.0,87,0.00,,,0.00,,2013-03-11 07:03:00,
2013-03-11 03:12:00,36.0,33.0,30.23,SE,136,0.0,1.0,87,0.00,,,0.00,,2013-03-11 07:12:00,
2013-03-11 03:22:00,36.0,33.0,30.23,SE,136,0.0,1.0,87,0.00,,,0.00,,2013-03-11 07:22:00,
2013-03-11 03:32:00,36.0,33.0,30.23,SE,136,0.0,0.0,87,0.00,,,0.00,,2013-03-11 07:32:00,
2013-03-11 03:42:00,36.0,33.0,30.23,SE,136,0.0,0.0,87,0.00,,,0.00,,2013-03-11 07:42:00,
2013-03-11 03:52:00,36.0,33.0,30.22,SSE,163,0.0,2.0,87,0.00,,,0.00,,2013-03-11 07:52:00,
2013-03-11 04:02:00,36.0,33.0,30.22,SSE,163,0.0,0.0,87,0.00,,,0.00,,2013-03-11 08:02:00,
2013-03-11 04:12:00,36.0,33.0,30.22,SSE,163,0.0,0.0,87,0.00,,,0.00,,2013-03-11 08:12:00,
2013-03-11 04:22:00,36.0,33.0,30.22,SSE,163,0.0,0.0,87,0.00,,,0.00,,2013-03-11 08:22:00,
2013-03-11 04:32:00,37.0,34.0,30.22,SSE,163,0.0,1.0,87,0.00,,,0.00,,2013-03-11 08:32:00,
2013-03-11 04:42:00,37.0,34.0,30.22,SSE,163,0.0,1.0,87,0.00,,,0.00,,2013-03-11 08:42:00,
2013-03-11 04:52:00,37.0,34.0,30.21,SSE,150,0.0,2.0,87,0.00,,,0.00,,2013-03-11 08:52:00,
2013-03-11 05:02:00,37.0,34.0,30.21,SSE,150,0.0,0.0,88,0.00,,,0.00,,2013-03-11 09:02:00,
2013-03-11 05:12:00,37.0,34.0,30.21,SSE,150,0.0,0.0,88,0.00,,,0.00,,2013-03-11 09:12:00,
2013-03-11 05:23:00,37.0,34.0,30.21,SSE,150,0.0,0.0,88,0.00,,,0.00,,2013-03-11 09:23:00,
2013-03-11 05:32:00,37.0,34.0,30.20,SSE,150,0.0,0.0,88,0.00,,,0.00,,2013-03-11 09:32:00,
2013-03-11 05:42:00,37.0,34.0,30.20,SSE,150,0.0,0.0,88,0.00,,,0.00,,2013-03-11 09:42:00,
2013-03-11 05:52:00,37.0,34.0,30.20,SSE,150,0.0,1.0,88,0.00,,,0.00,,2013-03-11 09:52:00,
2013-03-11 06:02:00,37.0,34.0,30.20,East,88,0.0,2.0,88,0.00,,,0.00,,2013-03-11 10:02:00,
2013-03-11 06:12:00,37.0,34.0,30.20,East,88,0.0,2.0,88,0.00,,,0.00,,2013-03-11 10:12:00,
2013-03-11 06:22:00,37.0,34.0,30.19,East,88,0.0,0.0,88,0.00,,,0.00,,2013-03-11 10:22:00,
2013-03-11 06:32:00,37.0,34.0,30.19,East,88,0.0,0.0,89,0.00,,,0.00,,2013-03-11 10:32:00,
2013-03-11 06:42:00,37.0,34.0,30.19,East,88,0.0,0.0,89,0.00,,,0.00,,2013-03-11 10:42:00,
2013-03-11 06:52:00,37.0,34.0,30.20,East,88,0.0,0.0,89,0.00,,,0.00,,2013-03-11 10:52:00,
2013-03-11 07:02:00,37.0,34.0,30.20,East,88,0.0,1.0,89,0.00,,,0.00,,2013-03-11 11:02:00,
2013-03-11 07:12:00,37.0,34.0,30.20,East,88,0.0,1.0,89,0.00,,,0.00,,2013-03-11 11:12:00,
2013-03-11 07:22:00,37.0,34.0,30.20,East,88,0.0,1.0,89,0.00,,,0.00,,2013-03-11 11:22:00,
2013-03-11 07:32:00,37.0,34.0,30.19,East,88,0.0,0.0,89,0.00,,,0.00,,2013-03-11 11:32:00,
2013-03-11 07:42:00,37.0,34.0,30.19,East,88,0.0,0.0,89,0.00,,,0.00,,2013-03-11 11:42:00,
2013-03-11 07:52:00,37.0,34.0,30.19,East,88,0.0,0.0,89,0.00,,,0.00,,2013-03-11 11:52:00,
2013-03-11 08:02:00,37.0,34.0,30.19,East,88,0.0,2.0,89,0.00,,,0.00,,2013-03-11 12:02:00,
2013-03-11 08:12:00,37.0,34.0,30.19,East,88,0.0,2.0,89,0.00,,,0.00,,2013-03-11 12:12:00,
2013-03-11 08:22:00,37.0,34.0,30.19,East,88,0.0,1.0,89,0.00,,,0.00,,2013-03-11 12:22:00,
2013-03-11 08:32:00,38.0,35.0,30.19,ESE,114,1.0,3.0,90,0.00,,,0.00,,2013-03-11 12:32:00,
2013-03-11 08:43:00,38.0,35.0,30.19,ESE,114,1.0,3.0,90,0.00,,,0.00,,2013-03-11 12:43:00,
2013-03-11 08:53:00,38.0,35.0,30.19,ESE,114,1.0,3.0,90,0.00,,,0.00,,2013-03-11 12:53:00,
2013-03-11 09:02:00,39.0,36.0,30.20,SSW,197,0.0,2.0,90,0.00,,,0.00,,2013-03-11 13:02:00,
2013-03-11 09:12:00,39.0,36.0,30.20,SSW,197,0.0,2.0,90,0.00,,,0.00,,2013-03-11 13:12:00,
2013-03-11 09:22:00,39.0,36.0,30.20,South,175,0.0,3.0,90,0.00,,,0.00,,2013-03-11 13:22:00,
2013-03-11 09:33:00,40.0,37.0,30.20,SE,142,0.0,4.0,90,0.00,,,0.00,,2013-03-11 13:33:00,
2013-03-11 09:42:00,40.0,37.0,30.20,SE,142,0.0,4.0,90,0.00,,,0.00,,2013-03-11 13:42:00,
2013-03-11 09:52:00,40.0,37.0,30.20,SW,220,0.0,5.0,89,0.00,,,0.00,,2013-03-11 13:52:00,
2013-03-11 10:02:00,41.0,38.0,30.20,SW,220,1.0,3.0,89,0.00,,,0.00,,2013-03-11 14:02:00,
2013-03-11 10:12:00,41.0,38.0,30.20,SW,220,1.0,3.0,89,0.00,,,0.00,,2013-03-11 14:12:00,
2013-03-11 10:22:00,41.0,38.0,30.20,SW,220,1.0,3.0,89,0.00,,,0.00,,2013-03-11 14:22:00,
2013-03-11 10:33:00,42.0,39.0,30.21,SW,232,1.0,3.0,88,0.00,,,0.00,,2013-03-11 14:33:00,
2013-03-11 10:42:00,42.0,39.0,30.21,SW,232,1.0,3.0,88,0.00,,,0.00,,2013-03-11 14:42:00,
2013-03-11 10:52:00,43.0,39.0,30.21,NE,54,0.0,3.0,86,0.00,,,0.00,,2013-03-11 14:52:00,
2013-03-11 11:03:00,44.0,39.0,30.21,SW,225,4.0,6.0,82,0.00,,,0.00,,2013-03-11 15:03:00,
2013-03-11 11:13:00,44.0,39.0,30.21,SW,225,4.0,6.0,82,0.00,,,0.00,,2013-03-11 15:13:00,
2013-03-11 11:22:00,44.0,39.0,30.20,East,99,1.0,5.0,81,0.00,,,0.00,,2013-03-11 15:22:00,
2013-03-11 11:32:00,45.0,39.0,30.20,SSE,164,1.0,4.0,80,0.00,,,0.00,,2013-03-11 15:32:00,
2013-03-11 11:42:00,45.0,39.0,30.20,SSE,164,1.0,4.0,80,0.00,,,0.00,,2013-03-11 15:42:00,
2013-03-11 11:52:00,45.0,39.0,30.18,SE,139,3.0,7.0,78,0.00,,,0.00,,2013-03-11 15:52:00,
2013-03-11 12:02:00,46.0,40.0,30.18,SW,231,1.0,7.0,78,0.00,,,0.00,,2013-03-11 16:02:00,
2013-03-11 12:12:00,46.0,40.0,30.18,SW,231,1.0,7.0,78,0.00,,,0.00,,2013-03-11 16:12:00,
2013-03-11 12:22:00,47.0,40.0,30.18,South,179,4.0,8.0,76,0.00,,,0.00,,2013-03-11 16:22:00,
2013-03-11 12:32:00,48.0,40.0,30.18,SW,223,3.0,9.0,74,0.00,,,0.00,,2013-03-11 16:32:00,
2013-03-11 12:43:00,48.0,40.0,30.18,SW,223,3.0,9.0,74,0.00,,,0.00,,2013-03-11 16:43:00,
2013-03-11 12:52:00,48.0,39.0,30.18,SSW,203,2.0,10.0,72,0.00,,,0.00,,2013-03-11 16:52:00,
2013-03-11 13:02:00,49.0,39.0,30.18,SSW,193,3.0,7.0,69,0.00,,,0.00,,2013-03-11 17:02:00,
2013-03-11 13:15:00,49.0,39.0,30.18,SSW,193,3.0,7.0,69,0.00,,,0.00,,2013-03-11 17:15:00,
2013-03-11 13:26:00,49.0,39.0,30.16,SW,231,3.0,8.0,69,0.00,,,0.00,,2013-03-11 17:26:00,
2013-03-11 13:36:00,49.0,39.0,30.16,SW,231,3.0,8.0,69,0.00,,,0.00,,2013-03-11 17:36:00,
2013-03-11 13:42:00,49.0,39.0,30.16,SW,231,3.0,8.0,69,0.00,,,0.00,,2013-03-11 17:42:00,
2013-03-11 13:52:00,51.0,40.0,30.16,SW,228,2.0,7.0,67,0.00,,,0.00,,2013-03-11 17:52:00,
2013-03-11 14:02:00,51.0,40.0,30.14,ESE,107,3.0,8.0,67,0.00,,,0.00,,2013-03-11 18:02:00,
2013-03-11 14:12:00,51.0,40.0,30.14,ESE,107,3.0,8.0,67,0.00,,,0.00,,2013-03-11 18:12:00,
2013-03-11 14:23:00,51.0,40.0,30.14,ESE,122,2.0,8.0,65,0.00,,,0.00,,2013-03-11 18:23:00,
2013-03-11 14:32:00,51.0,40.0,30.14,SE,146,1.0,7.0,65,0.00,,,0.00,,2013-03-11 18:32:00,
2013-03-11 14:42:00,51.0,40.0,30.14,SE,146,1.0,7.0,65,0.00,,,0.00,,2013-03-11 18:42:00,
2013-03-11 14:52:00,53.0,41.0,30.14,SW,230,6.0,9.0,63,0.00,,,0.00,,2013-03-11 18:52:00,
2013-03-11 15:02:00,52.0,40.0,30.13,SSE,164,1.0,10.0,64,0.00,,,0.00,,2013-03-11 19:02:00,
2013-03-11 15:12:00,52.0,40.0,30.13,SSE,164,1.0,10.0,64,0.00,,,0.00,,2013-03-11 19:12:00,
2013-03-11 15:22:00,52.0,39.0,30.12,SW,220,4.0,11.0,62,0.00,,,0.00,,2013-03-11 19:22:00,
2013-03-11 15:33:00,52.0,40.0,30.12,South,175,1.0,8.0,63,0.00,,,0.00,,2013-03-11 19:33:00,
2013-03-11 15:42:00,52.0,40.0,30.12,South,175,1.0,8.0,63,0.00,,,0.00,,2013-03-11 19:42:00,
2013-03-11 15:52:00,52.0,40.0,30.12,South,175,1.0,8.0,63,0.00,,,0.00,,2013-03-11 19:52:00,
2013-03-11 16:02:00,51.0,40.0,30.11,South,191,2.0,6.0,65,0.00,,,0.00,,2013-03-11 20:02:00,
2013-03-11 16:12:00,51.0,40.0,30.11,South,191,2.0,6.0,65,0.00,,,0.00,,2013-03-11 20:12:00,
2013-03-11 16:22:00,51.0,40.0,30.12,East,90,5.0,9.0,66,0.00,,,0.00,,2013-03-11 20:22:00,
2013-03-11 16:32:00,50.0,39.0,30.12,SSW,193,2.0,8.0,67,0.00,,,0.00,,2013-03-11 20:32:00,
2013-03-11 16:43:00,50.0,39.0,30.12,SSW,193,2.0,8.0,67,0.00,,,0.00,,2013-03-11 20:43:00,
2013-03-11 16:52:00,50.0,40.0,30.11,South,174,2.0,11.0,69,0.00,,,0.00,,2013-03-11 20:52:00,
2013-03-11 17:03:00,50.0,41.0,30.10,ESE,106,2.0,9.0,71,0.00,,,0.00,,2013-03-11 21:03:00,
2013-03-11 17:13:00,50.0,41.0,30.10,ESE,106,2.0,9.0,71,0.00,,,0.00,,2013-03-11 21:13:00,
2013-03-11 17:22:00,50.0,41.0,30.09,ESE,110,2.0,8.0,72,0.00,,,0.00,,2013-03-11 21:22:00,
2013-03-11 17:32:00,49.0,41.0,30.09,East,88,2.0,7.0,74,0.00,,,0.00,,2013-03-11 21:32:00,
2013-03-11 17:44:00,49.0,41.0,30.09,East,88,2.0,7.0,74,0.00,,,0.00,,2013-03-11 21:44:00,
2013-03-11 17:52:00,49.0,41.0,30.09,East,86,2.0,8.0,74,0.00,,,0.00,,2013-03-11 21:52:00,
2013-03-11 18:03:00,49.0,41.0,30.09,ENE,68,1.0,7.0,75,0.00,,,0.00,,2013-03-11 22:03:00,
2013-03-11 18:12:00,49.0,41.0,30.09,ENE,68,1.0,7.0,75,0.00,,,0.00,,2013-03-11 22:12:00,
2013-03-11 18:22:00,49.0,41.0,30.09,ESE,111,2.0,9.0,75,0.00,,,0.00,,2013-03-11 22:22:00,
2013-03-11 18:32:00,49.0,42.0,30.09,SE,144,2.0,7.0,76,0.00,,,0.00,,2013-03-11 22:32:00,
2013-03-11 18:43:00,49.0,42.0,30.09,SE,144,2.0,7.0,76,0.00,,,0.00,,2013-03-11 22:43:00,
2013-03-11 18:52:00,49.0,42.0,30.09,SSW,198,2.0,12.0,77,0.00,,,0.00,,2013-03-11 22:52:00,
2013-03-11 19:03:00,49.0,42.0,30.09,South,186,1.0,8.0,78,0.00,,,0.00,,2013-03-11 23:03:00,
2013-03-11 19:12:00,49.0,42.0,30.09,South,186,1.0,8.0,78,0.00,,,0.00,,2013-03-11 23:12:00,
2013-03-11 19:22:00,49.0,42.0,30.09,South,186,1.0,8.0,78,0.00,,,0.00,,2013-03-11 23:22:00,
2013-03-11 19:32:00,48.0,42.0,30.08,SE,128,5.0,9.0,80,0.00,,,0.00,,2013-03-11 23:32:00,
2013-03-11 19:43:00,48.0,42.0,30.08,SE,128,5.0,9.0,80,0.00,,,0.00,,2013-03-11 23:43:00,
2013-03-11 19:52:00,48.0,42.0,30.09,SW,224,1.0,8.0,81,0.00,,,0.00,,2013-03-11 23:52:00,
2013-03-11 20:02:00,48.0,43.0,30.08,East,94,1.0,7.0,82,0.00,,,0.00,,2013-03-12 00:02:00,
2013-03-11 20:12:00,48.0,43.0,30.08,East,94,1.0,7.0,82,0.00,,,0.00,,2013-03-12 00:12:00,
2013-03-11 20:23:00,48.0,43.0,30.08,SE,140,3.0,12.0,82,0.00,,,0.00,,2013-03-12 00:23:00,
2013-03-11 20:33:00,48.0,43.0,30.09,East,84,1.0,9.0,84,0.00,,,0.00,,2013-03-12 00:33:00,
2013-03-11 20:42:00,48.0,43.0,30.09,East,84,1.0,9.0,84,0.00,,,0.00,,2013-03-12 00:42:00,
2013-03-11 20:53:00,48.0,43.0,30.09,East,84,1.0,9.0,84,0.00,,,0.00,,2013-03-12 00:53:00,
2013-03-11 21:02:00,48.0,43.0,30.09,NE,42,0.0,6.0,84,0.00,,,0.00,,2013-03-12 01:02:00,
2013-03-11 21:12:00,48.0,43.0,30.09,NE,42,0.0,6.0,84,0.00,,,0.00,,2013-03-12 01:12:00,
2013-03-11 21:22:00,48.0,44.0,30.09,South,178,3.0,6.0,85,0.00,,,0.00,,2013-03-12 01:22:00,
2013-03-11 21:33:00,48.0,44.0,30.08,SE,128,2.0,7.0,86,0.00,,,0.00,,2013-03-12 01:33:00,
2013-03-11 21:42:00,48.0,44.0,30.08,SE,128,2.0,7.0,86,0.00,,,0.00,,2013-03-12 01:42:00,
2013-03-11 21:53:00,48.0,44.0,30.08,SE,128,2.0,7.0,86,0.00,,,0.00,,2013-03-12 01:53:00,
2013-03-11 22:02:00,48.0,44.0,30.08,SE,128,2.0,7.0,86,0.00,,,0.00,,2013-03-12 02:02:00,
2013-03-11 22:12:00,48.0,44.0,30.08,SE,128,2.0,7.0,86,0.00,,,0.00,,2013-03-12 02:12:00,
2013-03-11 22:22:00,48.0,44.0,30.07,South,177,2.0,6.0,87,0.00,,,0.00,,2013-03-12 02:22:00,
2013-03-11 22:32:00,48.0,45.0,30.08,SW,215,1.0,6.0,88,0.00,,,0.00,,2013-03-12 02:32:00,
2013-03-11 22:43:00,48.0,45.0,30.08,SW,215,1.0,6.0,88,0.00,,,0.00,,2013-03-12 02:43:00,
2013-03-11 22:52:00,48.0,45.0,30.06,SE,138,2.0,7.0,88,0.00,,,0.00,,2013-03-12 02:52:00,
2013-03-11 23:02:00,48.0,45.0,30.06,West,262,2.0,8.0,89,0.00,,,0.00,,2013-03-12 03:02:00,
2013-03-11 23:12:00,48.0,45.0,30.06,West,262,2.0,8.0,89,0.00,,,0.00,,2013-03-12 03:12:00,
2013-03-11 23:22:00,48.0,45.0,30.06,SW,221,4.0,8.0,89,0.00,,,0.00,,2013-03-12 03:22:00,
2013-03-11 23:32:00,48.0,45.0,30.06,West,264,2.0,5.0,89,0.00,,,0.00,,2013-03-12 03:32:00,
2013-03-11 23:42:00,48.0,45.0,30.06,West,264,2.0,5.0,89,0.00,,,0.00,,2013-03-12 03:42:00,
2013-03-11 23:52:00,48.0,45.0,30.05,SSW,209,2.0,7.0,89,0.00,,,0.00,,2013-03-12 03:52:00,